TimeCDT,TemperatureF,Dew PointF,Humidity,Sea Level PressureIn,VisibilityMPH,Wind Direction,Wind SpeedMPH,Gust SpeedMPH,PrecipitationIn,Events,Conditions,WindDirDegrees,DateUTC
12:04 AM,64.4,60.8,88,29.75,10.0,Calm,Calm,-,N/A,,Overcast,0,2012-10-02 05:04:00
12:53 AM,64.0,61.0,90,29.75,10.0,Calm,Calm,-,N/A,,Overcast,0,2012-10-02 05:53:00
1:05 AM,64.4,60.8,88,29.75,10.0,West,3.5,-,N/A,,Overcast,270,2012-10-02 06:05:00
1:53 AM,64.9,61.0,87,29.75,10.0,WNW,3.5,-,N/A,,Overcast,290,2012-10-02 06:53:00
2:34 AM,64.4,60.8,88,29.75,10.0,West,4.6,-,N/A,,Overcast,280,2012-10-02 07:34:00
3:53 AM,64.0,61.0,90,29.77,10.0,Calm,Calm,-,N/A,,Overcast,0,2012-10-02 08:53:00
4:40 AM,64.4,60.8,88,29.77,10.0,Calm,Calm,-,N/A,,Overcast,0,2012-10-02 09:40:00
4:53 AM,64.0,61.0,90,29.78,10.0,Calm,Calm,-,N/A,,Overcast,0,2012-10-02 09:53:00
5:13 AM,64.4,60.8,88,29.79,10.0,West,3.5,-,N/A,,Overcast,280,2012-10-02 10:13:00
5:53 AM,64.0,61.0,90,29.81,10.0,Variable,4.6,-,N/A,,Overcast,0,2012-10-02 10:53:00
6:07 AM,64.4,60.8,88,29.81,10.0,West,4.6,-,N/A,,Overcast,270,2012-10-02 11:07:00
6:53 AM,63.0,60.1,90,29.83,10.0,WNW,3.5,-,N/A,,Mostly Cloudy,300,2012-10-02 11:53:00
7:01 AM,62.6,60.8,94,29.82,10.0,WNW,4.6,-,N/A,,Scattered Clouds,300,2012-10-02 12:01:00
7:53 AM,64.0,59.0,84,29.85,10.0,NW,4.6,-,N/A,,Clear,310,2012-10-02 12:53:00
8:53 AM,66.9,59.0,76,29.88,10.0,WNW,4.6,-,N/A,,Partly Cloudy,290,2012-10-02 13:53:00
9:53 AM,71.1,57.9,63,29.90,10.0,NNW,8.1,-,N/A,,Clear,340,2012-10-02 14:53:00
10:53 AM,73.0,57.0,57,29.89,10.0,NNW,9.2,-,N/A,,Clear,340,2012-10-02 15:53:00
11:53 AM,75.0,57.0,53,29.90,10.0,NNW,8.1,-,N/A,,Partly Cloudy,340,2012-10-02 16:53:00
12:53 PM,73.9,57.0,55,29.90,10.0,WNW,5.8,-,N/A,,Scattered Clouds,290,2012-10-02 17:53:00
1:53 PM,75.0,55.9,51,29.89,10.0,WNW,5.8,-,N/A,,Mostly Cloudy,290,2012-10-02 18:53:00
2:53 PM,77.0,57.0,50,29.88,10.0,Variable,5.8,-,N/A,,Partly Cloudy,0,2012-10-02 19:53:00
3:53 PM,78.1,55.0,45,29.89,10.0,Calm,Calm,-,N/A,,Scattered Clouds,0,2012-10-02 20:53:00
4:53 PM,73.9,61.0,64,29.89,10.0,SSW,5.8,-,N/A,,Partly Cloudy,210,2012-10-02 21:53:00
5:53 PM,73.9,61.0,64,29.90,10.0,Calm,Calm,-,N/A,,Mostly Cloudy,0,2012-10-02 22:53:00
7:53 PM,66.0,63.0,90,29.94,10.0,Calm,Calm,-,N/A,,Clear,0,2012-10-03 00:53:00
9:28 PM,62.6,62.6,100,29.97,2.5,Calm,Calm,-,N/A,,Clear,0,2012-10-03 02:28:00
9:37 PM,64.4,62.6,94,29.98,3.0,Calm,Calm,-,N/A,,Clear,0,2012-10-03 02:37:00
9:53 PM,63.0,62.1,97,29.99,4.0,Calm,Calm,-,N/A,,Clear,0,2012-10-03 02:53:00
10:53 PM,63.0,61.0,93,30.01,3.0,Calm,Calm,-,N/A,,Clear,0,2012-10-03 03:53:00
11:23 PM,62.6,60.8,94,30.00,2.5,Calm,Calm,-,N/A,,Clear,0,2012-10-03 04:23:00
11:34 PM,62.6,60.8,94,30.01,0.8,Calm,Calm,-,N/A,,Clear,0,2012-10-03 04:34:00
11:53 PM,62.1,60.1,93,30.01,1.0,Calm,Calm,-,N/A,,Clear,0,2012-10-03 04:53:00